DMSP 5D-2 F13 DEB, 40470

Orbit data source: Space-Track

DMSP 5D-2 F13 DEB, 40470 is space debris in SSO originally from a launch on Fri, 24 Mar 1995 UTC launched from the Air Force Western Test Range (AFWTR). Debris objects in space refer to the collection of defunct objects orbiting the Earth. Examples of debris include non-operational satellites, rocket bodies, and fragments generated from explosions, collisions, or faulty payload assembly.

Loading next visibility...
Identifier
40470, 1995-015BN
Orbit
SSO
Country
Flag of USUS
Related business
Manufacturer
Unknown
Mission
Spacecraft
Bus & Motor
Unknown
Mass
Unknown
Launch date (UTC)
1995-03-24 (31 years ago)
Launch vehicle
Unknown
Launch site
Air Force Western Test Range (AFWTR)
Object type
Payload
Rocket body
Debris
Shape & HBR
Unknown shape, 0.1 m
Radar Cross Section
Medium (>0.1 m² and <1 m²)

Expand to show TLE details & history
Last TLE update: 3 days ago

TLE from 3 days ago
0 DMSP 5D-2 F13 DEB
1 40470U 95015BN  26170.44353183  .00002662  00000-0  11805-2 0  9995
2 40470  98.9951 171.0238 0046630  80.0565 280.5871 14.23356878580239
Epoch: 2026-06-19T10:38Z
TLE epoch observation values (Epoch: 2026-06-19T10:38:41.150Z)
Latitude
-0°
Longitude
103.67991°
Altitude
810.921 km
Speed
7.451 km/s
True Right ascension
11h 24m 05s
True Declination
0° 00' 00"
Sunlit
Object was in daylight at epoch
Visualization orbit readout
Latitude
Unknown
Longitude
Unknown
Altitude
Unknown
Speed
Unknown
Apparent Right ascension
Unknown
Apparent Declination
Unknown
Sunlit
N/A
Visualization observer readout
Local Sidereal Time
21:37:29
Azimuth
Unknown
Elevation
Unknown
Doppler factor
Unknown
Orbital elements
Apogee altitude
844.714 km
Perigee altitude
777.667 km
Semi-major axis
7,189.327 km
Eccentricity
0.00466
Inclination
98.9951°
RAAN
171.0238°
Arg. of periapsis
80.0565°
True anomaly
280.0613°
Mean anomaly
280.5871°
Eccentric anomaly
280.32426°
Mean motion
3.5605 °/min
Orbital period
101.11 mins
BSTAR
0.0011805

Documentation

Showing up to 5 results
|